FW2663 Weather Reports


time (UTC)temp
C
wind
direction
speed
KPH
gust
KPH
rain 1hr
cm
rain 24hr
cm
rain mn
cm
humidity
%
barometer
mb
20260508023503 10 0 0.0 0.0 0.00 0.30 0.25 95 1011.4
20260508023024 10 0 0.0 0.0 0.00 0.30 0.25 95 1011.4
20260508022503 10 0 0.0 0.0 0.00 0.30 0.25 95 1011.2
20260508022003 10 0 0.0 0.0 0.00 0.30 0.25 96 1011.1
20260508021503 10 0 0.0 0.0 0.00 0.30 0.25 95 1011.0
20260508021003 10 0 0.0 0.0 0.00 0.30 0.25 95 1011.0
20260508020503 10 0 0.0 0.0 0.00 0.30 0.25 95 1011.0
20260508020003 11 0 0.0 0.0 0.00 0.30 0.25 95 1010.9
20260508015503 11 0 0.0 0.0 0.00 0.30 0.25 95 1010.8
20260508015003 11 0 0.0 0.0 0.00 0.30 0.25 95 1010.7
20260508014524 11 0 0.0 0.0 0.00 0.30 0.25 95 1010.5
20260508014003 11 0 0.0 0.0 0.00 0.30 0.25 95 1010.5
20260508013503 11 0 0.0 0.0 0.00 0.30 0.25 95 1010.5
20260508013024 11 0 0.0 0.0 0.00 0.30 0.25 95 1010.5
20260508012503 11 0 0.0 0.0 0.00 0.30 0.25 95 1010.4
20260508012003 12 0 0.0 0.0 0.00 0.30 0.25 94 1010.1
20260508011503 12 0 0.0 0.0 0.00 0.30 0.25 95 1010.0
20260508011003 12 0 0.0 0.0 0.00 0.30 0.25 95 1010.0
20260508010503 12 0 0.0 0.0 0.00 0.30 0.25 95 1010.0
20260508010003 12 0 0.0 0.0 0.00 0.30 0.25 95 1010.1
20260508005503 12 0 0.0 0.0 0.00 0.30 0.25 95 1010.1
20260508005003 12 0 0.0 0.0 0.00 0.30 0.25 94 1010.0
20260508004524 12 0 0.0 0.0 0.00 0.30 0.25 94 1010.0
20260508004003 12 0 0.0 0.0 0.00 0.30 0.25 94 1010.0
20260508003503 12 0 0.0 0.0 0.00 0.30 0.25 94 1010.0
20260508003003 12 0 0.0 0.0 0.00 0.30 0.25 94 1010.0
20260508002503 12 0 0.0 0.0 0.00 0.30 0.25 94 1010.0
20260508002003 12 0 0.0 0.0 0.00 0.30 0.25 94 1010.0
20260508001503 12 0 0.0 0.0 0.00 0.30 0.25 94 1010.0
20260508001003 12 0 0.0 0.0 0.00 0.30 0.25 93 1009.9
20260508000503 13 0 0.0 0.0 0.00 0.30 0.25 93 1009.8
20260508000003 13 0 0.0 0.0 0.00 0.30 0.25 93 1009.6
20260507235503 13 0 0.0 0.0 0.00 0.30 0.25 93 1009.6
20260507235003 13 0 0.0 0.0 0.00 0.30 0.25 93 1009.5
20260507234524 13 0 0.0 0.0 0.00 0.30 0.25 93 1009.4
20260507234003 13 0 0.0 0.0 0.00 0.30 0.25 92 1009.4
20260507233503 13 0 0.0 0.0 0.00 0.30 0.25 92 1009.2
20260507233003 13 0 0.0 0.0 0.00 0.30 0.25 92 1009.2
20260507232503 13 0 0.0 0.0 0.00 0.30 0.25 93 1009.2
20260507232024 13 0 0.0 0.0 0.00 0.30 0.25 93 1009.1
20260507231503 13 0 0.0 0.0 0.00 0.30 0.25 93 1009.1
20260507231003 13 0 0.0 0.0 0.00 0.30 0.25 93 1008.9
20260507230503 13 0 0.0 0.0 0.00 0.30 0.25 93 1009.0
20260507230024 13 0 0.0 0.0 0.00 0.30 0.25 92 1009.1
20260507225503 13 0 0.0 0.0 0.00 0.30 0.25 92 1009.0
20260507225024 13 0 0.0 0.0 0.00 0.30 0.25 92 1009.1
20260507224504 13 0 0.0 0.0 0.00 0.30 0.25 92 1009.0
20260507224003 13 0 0.0 0.0 0.00 0.30 0.25 92 1009.0
20260507223524 13 144 0.0 4.8 0.00 0.30 0.25 92 1009.0
20260507223024 13 144 0.0 4.8 0.00 0.30 0.25 92 1008.9
20260507222524 13 145 0.0 6.4 0.00 0.30 0.25 92 1008.9
20260507222003 13 147 1.6 12.9 0.00 0.30 0.25 92 1008.9
20260507221503 13 149 1.6 12.9 0.00 0.30 0.25 92 1009.0
20260507221003 13 155 1.6 11.3 0.00 0.30 0.25 92 1008.8
20260507220503 13 155 1.6 11.3 0.00 0.30 0.25 92 1008.9
20260507220003 13 158 0.0 11.3 0.00 0.30 0.25 92 1008.8
20260507215503 13 158 0.0 11.3 0.00 0.30 0.25 93 1008.9
20260507215003 13 0 0.0 0.0 0.00 0.30 0.25 93 1009.1
20260507214503 13 0 0.0 0.0 0.00 0.30 0.25 92 1009.0
20260507214003 13 0 0.0 0.0 0.00 0.30 0.25 92 1009.0
20260507213503 13 0 0.0 0.0 0.00 0.30 0.25 93 1009.1
20260507213003 13 0 0.0 0.0 0.00 0.30 0.25 92 1009.0
20260507212506 13 0 0.0 0.0 0.00 0.30 0.25 93 1009.0
20260507212003 13 0 0.0 0.0 0.00 0.30 0.25 92 1008.8
20260507211503 13 160 0.0 8.0 0.00 0.30 0.25 92 1008.9
20260507211003 13 160 0.0 8.0 0.00 0.30 0.25 91 1008.8
20260507210524 13 161 0.0 4.8 0.00 0.30 0.25 91 1008.7
20260507210003 13 0 0.0 0.0 0.00 0.30 0.25 91 1008.7
20260507205503 13 0 0.0 0.0 0.00 0.30 0.25 91 1008.7
20260507205003 13 0 0.0 0.0 0.00 0.30 0.25 93 1008.8
20260507204503 13 0 0.0 0.0 0.00 0.30 0.25 92 1008.7
20260507204003 13 0 0.0 0.0 0.00 0.30 0.25 93 1008.7
20260507203503 13 0 0.0 0.0 0.00 0.30 0.25 93 1008.6
20260507203003 12 0 0.0 0.0 0.00 0.30 0.25 93 1008.7
20260507202503 12 0 0.0 0.0 0.00 0.30 0.25 94 1008.8
20260507202003 12 161 0.0 4.8 0.00 0.30 0.25 94 1008.9
20260507201503 12 161 0.0 4.8 0.00 0.30 0.25 93 1008.9
20260507201003 12 0 0.0 0.0 0.00 0.30 0.25 94 1009.3
20260507200503 12 0 0.0 0.0 0.00 0.30 0.25 94 1009.3
20260507200003 12 0 0.0 0.0 0.00 0.30 0.25 93 1009.4
20260507195503 12 0 0.0 0.0 0.00 0.30 0.25 93 1009.5
20260507195003 12 0 0.0 0.0 0.00 0.30 0.25 94 1009.4
20260507194503 12 0 0.0 0.0 0.03 0.30 0.25 93 1009.3
20260507194003 12 0 0.0 0.0 0.03 0.30 0.25 93 1009.3
20260507193503 12 0 0.0 0.0 0.03 0.30 0.25 94 1009.4
20260507193003 12 0 0.0 0.0 0.03 0.30 0.25 94 1009.6
20260507192524 12 0 0.0 0.0 0.03 0.30 0.25 94 1009.5
20260507192003 12 0 0.0 0.0 0.03 0.30 0.25 93 1009.8
20260507191524 12 0 0.0 0.0 0.03 0.30 0.25 93 1009.7
20260507191003 12 0 0.0 0.0 0.03 0.30 0.25 93 1009.8
20260507190503 12 0 0.0 0.0 0.03 0.30 0.25 93 1010.0
20260507190004 12 0 0.0 0.0 0.05 0.30 0.25 95 1009.9
20260507185503 12 107 0.0 4.8 0.08 0.30 0.25 94 1010.0
20260507185003 12 107 0.0 4.8 0.08 0.30 0.25 94 1010.0
20260507184524 12 0 0.0 0.0 0.05 0.28 0.23 93 1009.9
20260507184003 12 0 0.0 0.0 0.05 0.28 0.23 95 1009.7
20260507183524 12 0 0.0 0.0 0.05 0.28 0.23 94 1009.9
20260507183003 12 0 0.0 0.0 0.05 0.28 0.23 94 1010.0
20260507182503 12 0 0.0 0.0 0.05 0.28 0.23 94 1010.1
20260507182024 12 0 0.0 0.0 0.05 0.28 0.23 93 1010.1
20260507181503 12 0 0.0 0.0 0.05 0.28 0.23 93 1010.0
20260507181025 12 0 0.0 0.0 0.05 0.28 0.23 94 1010.0
20260507180503 12 0 0.0 0.0 0.05 0.28 0.23 93 1010.2
20260507180003 12 0 0.0 0.0 0.03 0.25 0.20 93 1010.1
20260507175525 12 0 0.0 0.0 0.00 0.23 0.18 93 1010.0
20260507175003 12 98 0.0 8.0 0.00 0.23 0.18 93 1010.0
20260507174503 12 107 1.6 11.3 0.00 0.23 0.18 93 1009.8
20260507174003 12 98 3.2 11.3 0.00 0.23 0.18 92 1009.8
20260507173503 12 91 3.2 11.3 0.00 0.23 0.18 92 1009.8
20260507173003 12 87 1.6 14.5 0.00 0.23 0.18 92 1009.6
20260507172503 12 83 1.6 14.5 0.00 0.23 0.18 91 1009.8
20260507172003 12 78 1.6 12.9 0.00 0.25 0.18 91 1009.9
20260507171524 12 61 0.0 12.9 0.00 0.25 0.18 92 1009.8
20260507171003 12 0 0.0 0.0 0.00 0.25 0.18 92 1009.9
20260507170524 12 104 1.6 6.4 0.00 0.25 0.18 93 1009.9
20260507170003 12 105 1.6 8.0 0.00 0.25 0.18 93 1010.0
20260507165503 12 108 1.6 8.0 0.00 0.28 0.18 93 1010.0
20260507165024 12 100 1.6 8.0 0.00 0.28 0.18 93 1010.1
20260507164503 12 96 3.2 14.5 0.00 0.28 0.18 93 1010.2
20260507164024 12 92 3.2 14.5 0.00 0.28 0.18 93 1010.1
20260507163503 12 87 3.2 11.3 0.00 0.28 0.18 93 1010.1
20260507163003 12 91 1.6 11.3 0.00 0.28 0.18 93 1010.2
20260507162503 12 70 0.0 11.3 0.00 0.28 0.18 94 1010.2
20260507162003 12 64 1.6 12.9 0.00 0.28 0.18 94 1010.2
20260507161503 12 75 1.6 16.1 0.00 0.28 0.18 93 1010.2
20260507161003 12 77 1.6 16.1 0.00 0.28 0.18 94 1010.1
20260507160524 12 63 0.0 8.0 0.00 0.28 0.18 94 1010.2
20260507160024 12 78 1.6 12.9 0.00 0.28 0.18 94 1010.4
20260507155524 12 79 1.6 12.9 0.00 0.28 0.18 95 1010.4
20260507155003 12 72 1.6 8.0 0.00 0.28 0.18 95 1010.4
20260507154503 12 77 1.6 12.9 0.00 0.28 0.18 95 1010.5
20260507154024 12 77 1.6 12.9 0.00 0.28 0.18 95 1010.6
20260507153504 12 56 1.6 11.3 0.00 0.28 0.18 95 1010.6
20260507153003 12 70 1.6 11.3 0.00 0.28 0.18 95 1010.5
20260507152503 12 77 1.6 11.3 0.00 0.28 0.18 95 1010.4
20260507152024 12 78 1.6 8.0 0.00 0.28 0.18 95 1010.5
20260507151503 12 89 1.6 9.7 0.00 0.28 0.18 95 1010.4
20260507151003 12 93 0.0 9.7 0.03 0.28 0.18 95 1010.4
20260507150504 12 96 0.0 8.0 0.03 0.30 0.18 95 1010.6
20260507150025 12 96 0.0 8.0 0.03 0.30 0.18 95 1010.5
20260507145503 12 88 0.0 8.0 0.03 0.30 0.18 95 1010.5
20260507145003 12 76 1.6 17.7 0.03 0.30 0.18 95 1010.2
20260507144503 12 73 3.2 17.7 0.03 0.30 0.18 95 1010.3
20260507144003 12 69 3.2 16.1 0.03 0.30 0.18 94 1010.3
20260507143503 12 65 3.2 12.9 0.03 0.30 0.18 95 1010.3
20260507143003 12 70 1.6 12.9 0.03 0.30 0.18 95 1010.3
20260507142503 12 76 1.6 20.9 0.03 0.30 0.18 95 1010.1
20260507142003 12 69 3.2 20.9 0.05 0.30 0.18 94 1010.1
20260507141503 12 77 3.2 14.5 0.05 0.33 0.18 95 1010.0
20260507141003 12 88 3.2 16.1 0.03 0.30 0.15 94 1010.5
20260507140503 12 85 1.6 16.1 0.03 0.33 0.15 94 1010.5
20260507140003 12 76 1.6 11.3 0.03 0.36 0.15 94 1010.4
20260507135503 13 79 3.2 11.3 0.03 0.36 0.15 95 1010.4
20260507135003 13 72 3.2 11.3 0.03 0.36 0.15 95 1010.0
20260507134503 13 74 3.2 11.3 0.03 0.38 0.15 94 1010.0
20260507134003 13 95 1.6 11.3 0.03 0.38 0.15 94 1010.3
20260507133524 13 93 3.2 11.3 0.03 0.38 0.15 94 1010.4
20260507133003 13 82 1.6 9.7 0.03 0.38 0.15 95 1010.6
20260507132524 13 78 1.6 11.3 0.05 0.41 0.15 96 1010.6
20260507132003 13 75 3.2 17.7 0.03 0.38 0.13 96 1010.4
20260507131503 14 72 4.8 17.7 0.03 0.41 0.13 96 1010.5
20260507131024 14 67 1.6 11.3 0.03 0.41 0.13 96 1010.5
20260507130503 14 65 1.6 17.7 0.03 0.41 0.13 96 1010.4
20260507130003 14 59 1.6 17.7 0.03 0.41 0.13 96 1010.3
20260507125503 15 62 0.0 14.5 0.03 0.41 0.13 96 1010.2
20260507125003 15 70 1.6 14.5 0.03 0.41 0.13 96 1010.2
20260507124503 15 74 1.6 14.5 0.03 0.41 0.13 96 1010.0
20260507124003 15 86 0.0 14.5 0.03 0.41 0.13 96 1010.0
20260507123503 15 90 0.0 8.0 0.03 0.41 0.13 96 1009.9
20260507123003 15 91 0.0 8.0 0.03 0.41 0.13 96 1009.8
20260507122524 15 90 0.0 4.8 0.00 0.38 0.10 96 1009.6
20260507122003 15 0 0.0 0.0 0.00 0.38 0.10 96 1009.7
20260507121503 15 0 0.0 0.0 0.00 0.41 0.10 96 1009.7
20260507121003 16 0 0.0 0.0 0.00 0.41 0.10 96 1009.4
20260507120503 16 0 0.0 0.0 0.00 0.41 0.10 97 1009.4
20260507120004 16 0 0.0 0.0 0.00 0.43 0.10 97 1009.6
20260507115503 16 0 0.0 0.0 0.00 0.43 0.10 98 1009.6
20260507115003 16 0 0.0 0.0 0.00 0.43 0.10 98 1009.5
20260507114503 16 0 0.0 0.0 0.00 0.43 0.10 98 1009.4
20260507114003 16 0 0.0 0.0 0.00 0.43 0.10 98 1009.4
20260507113503 16 0 0.0 0.0 0.00 0.43 0.10 98 1009.3
20260507113004 16 0 0.0 0.0 0.00 0.43 0.10 98 1009.2
20260507112503 16 0 0.0 0.0 0.00 0.43 0.10 98 1009.2
20260507112003 16 0 0.0 0.0 0.00 0.43 0.10 98 1009.3
20260507111504 16 0 0.0 0.0 0.00 0.43 0.10 98 1009.1
20260507111003 16 0 0.0 0.0 0.00 0.43 0.10 98 1009.2
20260507110503 16 0 0.0 0.0 0.00 0.43 0.10 98 1009.0
20260507110003 16 0 0.0 0.0 0.00 0.43 0.10 98 1008.9
20260507105524 16 0 0.0 0.0 0.00 0.43 0.10 98 1009.1
20260507105003 16 0 0.0 0.0 0.00 0.43 0.10 98 1009.1
20260507104504 16 0 0.0 0.0 0.00 0.43 0.10 98 1009.0
20260507104003 16 0 0.0 0.0 0.00 0.43 0.10 98 1008.9
20260507103503 16 0 0.0 0.0 0.00 0.43 0.10 98 1008.7
20260507103003 16 0 0.0 0.0 0.00 0.43 0.10 98 1008.9
20260507102503 16 0 0.0 0.0 0.00 0.43 0.10 98 1008.6
20260507102003 16 0 0.0 0.0 0.00 0.43 0.10 98 1008.1
20260507101524 16 0 0.0 0.0 0.00 0.43 0.10 98 1008.7
20260507101003 16 0 0.0 0.0 0.00 0.43 0.10 98 1008.6
20260507100503 16 0 0.0 0.0 0.00 0.43 0.10 98 1008.3
20260507100003 16 0 0.0 0.0 0.00 0.43 0.10 98 1008.6
20260507095503 16 0 0.0 0.0 0.00 0.43 0.10 98 1008.5
20260507095003 16 0 0.0 0.0 0.00 0.43 0.10 98 1008.6
20260507094503 16 0 0.0 0.0 0.00 0.43 0.10 98 1008.7
20260507094003 16 0 0.0 0.0 0.00 0.43 0.10 98 1008.5
20260507093503 16 0 0.0 0.0 0.00 0.43 0.10 98 1008.6
20260507093003 16 0 0.0 0.0 0.00 0.43 0.10 98 1008.3
20260507092524 16 0 0.0 0.0 0.00 0.43 0.10 98 1008.2
20260507092003 16 0 0.0 0.0 0.00 0.43 0.10 98 1008.1
20260507091503 16 0 0.0 0.0 0.00 0.43 0.10 98 1008.3
20260507091003 16 0 0.0 0.0 0.00 0.43 0.10 98 1008.4
20260507090503 16 0 0.0 0.0 0.00 0.43 0.10 98 1008.7
20260507090003 16 0 0.0 0.0 0.00 0.43 0.10 98 1008.8
20260507085503 16 0 0.0 0.0 0.00 0.43 0.10 98 1008.8
20260507085024 16 0 0.0 0.0 0.00 0.43 0.10 98 1008.6
20260507084503 16 0 0.0 0.0 0.00 0.43 0.10 98 1008.6
20260507084003 17 0 0.0 0.0 0.00 0.43 0.10 97 1008.6
20260507083503 17 0 0.0 0.0 0.00 0.43 0.10 98 1008.7
20260507083003 17 0 0.0 0.0 0.00 0.43 0.10 98 1008.7
20260507082503 17 0 0.0 0.0 0.00 0.43 0.10 98 1008.8
20260507082003 17 0 0.0 0.0 0.00 0.43 0.10 98 1008.9
20260507081503 17 0 0.0 0.0 0.00 0.43 0.10 98 1008.8
20260507081003 17 0 0.0 0.0 0.00 0.43 0.10 98 1008.7
20260507080503 17 0 0.0 0.0 0.00 0.43 0.10 98 1008.8
20260507080003 17 0 0.0 0.0 0.00 0.43 0.10 98 1008.7
20260507075503 17 0 0.0 0.0 0.00 0.43 0.10 98 1008.7
20260507075003 17 0 0.0 0.0 0.00 0.43 0.10 98 1008.9
20260507074503 17 0 0.0 0.0 0.00 0.43 0.10 98 1009.1
20260507074003 17 0 0.0 0.0 0.00 0.43 0.10 98 1008.9
20260507073503 17 0 0.0 0.0 0.00 0.43 0.10 98 1008.6
20260507073003 17 0 0.0 0.0 0.00 0.43 0.10 98 1008.5
20260507072503 17 0 0.0 0.0 0.00 0.43 0.10 98 1008.2
20260507072003 17 0 0.0 0.0 0.00 0.43 0.10 98 1008.4
20260507071503 17 0 0.0 0.0 0.00 0.43 0.10 98 1008.4
20260507071024 17 0 0.0 0.0 0.00 0.43 0.10 98 1008.4
20260507070503 17 0 0.0 0.0 0.00 0.43 0.10 97 1008.8
20260507070024 17 0 0.0 0.0 0.00 0.43 0.10 97 1008.7
20260507065503 17 0 0.0 0.0 0.03 0.43 0.10 97 1008.5
20260507065003 17 0 0.0 0.0 0.03 0.43 0.10 97 1008.4
20260507064503 17 0 0.0 0.0 0.03 0.43 0.10 97 1008.5
20260507064003 17 0 0.0 0.0 0.03 0.43 0.10 97 1008.4
20260507063503 17 0 0.0 0.0 0.03 0.43 0.10 97 1008.3
20260507063003 17 0 0.0 0.0 0.05 0.43 0.10 97 1008.4
20260507062524 17 0 0.0 0.0 0.05 0.43 0.10 97 1008.4
20260507062025 17 0 0.0 0.0 0.08 0.43 0.10 97 1008.7
20260507061503 17 0 0.0 0.0 0.08 0.43 0.10 97 1008.6
20260507061004 17 0 0.0 0.0 0.08 0.43 0.10 97 1008.7
20260507060503 17 0 0.0 0.0 0.08 0.43 0.10 97 1008.8
20260507060003 17 0 0.0 0.0 0.08 0.43 0.10 97 1008.8
20260507055503 17 191 0.0 3.2 0.05 0.41 0.08 96 1008.7
20260507055003 17 191 0.0 3.2 0.05 0.41 0.08 96 1008.9
20260507054503 17 0 0.0 0.0 0.05 0.41 0.08 96 1008.9
20260507054003 17 0 0.0 0.0 0.05 0.41 0.08 97 1009.0
20260507053503 17 0 0.0 0.0 0.05 0.41 0.08 97 1009.2
20260507053003 17 188 0.0 6.4 0.03 0.38 0.05 96 1009.2
20260507052503 17 188 0.0 6.4 0.03 0.38 0.05 96 1009.3
20260507052003 17 184 0.0 4.8 0.00 0.36 0.03 96 1009.1
20260507051503 17 186 0.0 4.8 0.00 0.36 0.03 97 1009.0
20260507051003 17 189 0.0 4.8 0.03 0.36 0.03 97 1008.9
20260507050503 18 0 0.0 0.0 0.03 0.36 0.03 97 1008.9
20260507050003 18 0 0.0 0.0 0.03 0.36 0.03 97 1008.9
20260507045503 18 0 0.0 0.0 0.03 0.36 0.03 97 1009.0
20260507045003 18 0 0.0 0.0 0.03 0.36 0.03 97 1009.0
20260507044503 18 0 0.0 0.0 0.03 0.36 0.03 96 1008.8
20260507044024 18 0 0.0 0.0 0.03 0.36 0.03 96 1008.6
20260507043524 18 0 0.0 0.0 0.05 0.36 0.03 96 1008.8
20260507043003 18 0 0.0 0.0 0.05 0.36 0.03 97 1008.8
20260507042503 18 0 0.0 0.0 0.08 0.36 0.03 96 1008.9
20260507042003 18 0 0.0 0.0 0.08 0.36 0.03 96 1009.0
20260507041503 18 0 0.0 0.0 0.08 0.36 0.03 96 1009.2
20260507041003 18 0 0.0 0.0 0.05 0.33 0.00 96 1009.3
20260507040503 18 0 0.0 0.0 0.05 0.33 0.00 96 1009.6
20260507040004 18 0 0.0 0.0 0.05 0.33 0.00 96 1009.8
20260507035503 18 0 0.0 0.0 0.05 0.33 0.33 96 1010.2
20260507035003 18 0 0.0 0.0 0.05 0.33 0.33 96 1010.2
20260507034503 18 0 0.0 0.0 0.05 0.33 0.33 96 1009.9
20260507034003 18 0 0.0 0.0 0.05 0.33 0.33 95 1010.2
20260507033524 18 0 0.0 0.0 0.03 0.30 0.30 95 1010.7
20260507033003 18 0 0.0 0.0 0.03 0.30 0.30 95 1010.5
20260507032503 18 0 0.0 0.0 0.00 0.28 0.28 95 1010.5
20260507032003 18 0 0.0 0.0 0.00 0.28 0.28 94 1010.5
20260507031503 18 0 0.0 0.0 0.00 0.28 0.28 94 1009.8
20260507031003 18 0 0.0 0.0 0.00 0.28 0.28 94 1009.7
20260507030503 18 0 0.0 0.0 0.00 0.28 0.28 94 1009.6
20260507030003 18 0 0.0 0.0 0.00 0.28 0.28 93 1009.8
20260507025503 18 0 0.0 0.0 0.00 0.28 0.28 93 1010.6
20260507025003 18 0 0.0 0.0 0.00 0.28 0.28 92 1010.4
20260507024503 18 0 0.0 0.0 0.00 0.28 0.28 92 1010.3
20260507024024 19 0 0.0 0.0 0.00 0.28 0.28 92 1010.1